Overview Statistics Trail Chart Weather Telemetry Raw packets
 

This is the latest recevied weather packets stored in our database for station/object KB1WCR. If no packets are shown the sender has not sent any weather packets the latest 10 day(s).

<< 89 90 91 92 93 94 95 >>
Time Temp. Humidity Pressure Rain* Wind** Luminosity Snow
1787760211 26.67° C 61% 1017.3 hPa 0 mm - 733 W/m² -
1787759907 26.67° C 60% 1017.3 hPa 0 mm - 740 W/m² -
1787759602 26.67° C 61% 1017.1 hPa 0 mm - 715 W/m² -
1787759298 26.67° C 65% 1017.3 hPa 0 mm - 704 W/m² -
1787758993 25.56° C 62% 1017.4 hPa 0 mm - 698 W/m² -
1787758687 25.56° C 66% 1017.3 hPa 0 mm - 694 W/m² -
1787758383 25.56° C 65% 1017.6 hPa 0 mm - 688 W/m² -
1787758081 25.56° C 66% 1017.6 hPa 0 mm - 683 W/m² -
1787757778 25.56° C 65% 1017.7 hPa 0 mm - 676 W/m² -
1787757477 25.56° C 62% 1017.6 hPa 0 mm - 670 W/m² -
1787757172 25.56° C 65% 1017.7 hPa 0 mm - 660 W/m² -
1787756870 25° C 64% 1017.6 hPa 0 mm - 638 W/m² -
1787756567 25.56° C 66% 1017.6 hPa 0 mm - 654 W/m² -
1787756265 25° C 64% 1017.7 hPa 0 mm - 646 W/m² -
1787755961 25° C 65% 1017.7 hPa 0 mm - 635 W/m² -
1787755660 24.44° C 66% 1017.7 hPa 0 mm - 631 W/m² -
1787755355 25° C 66% 1017.7 hPa 0 mm - 617 W/m² -
1787755055 24.44° C 67% 1017.7 hPa 0 mm - 609 W/m² -
1787754749 24.44° C 69% 1017.7 hPa 0 mm - 602 W/m² -
1787754447 23.33° C 70% 1017.6 hPa 0 mm - 595 W/m² -
1787754142 23.89° C 71% 1017.6 hPa 0 mm - 585 W/m² -
1787753837 23.89° C 71% 1017.6 hPa 0 mm - 574 W/m² -
1787753536 23.89° C 72% 1017.4 hPa 0 mm - 564 W/m² -
1787753234 23.33° C 73% 1017.6 hPa 0 mm - 551 W/m² -
1787752929 23.89° C 73% 1017.6 hPa 0 mm - 538 W/m² -

* Rain latest hour (hover to see other rain measurements)
** Current wind speed in m/s (hover to see current wind gust speed)